Overview Statistics Trail Chart Weather Telemetry Raw packets
 

This is the latest recevied weather packets stored in our database for station/object AG1T-20. If no packets are shown the sender has not sent any weather packets the latest 10 day(s).

<< 54 55 56 57 58 >>
Time Temp. Humidity Pressure Rain* Wind** Luminosity Snow
1787776205 30° C 29% 1023.6 hPa 0 mm - 762 W/m² -
1787775605 29.44° C 31% 1023.6 hPa 0 mm - 273 W/m² -
1787775005 30° C 27% 1023.6 hPa 0 mm - 802 W/m² -
1787774407 30° C 29% 1023.6 hPa 0 mm - 777 W/m² -
1787773805 29.44° C 30% 1024.3 hPa 0 mm - 794 W/m² -
1787773205 29.44° C 31% 1024.3 hPa 0 mm - 881 W/m² -
1787772605 28.89° C 30% 1024.3 hPa 0 mm - 355 W/m² -
1787772004 28.89° C 31% 1024.3 hPa 0 mm - 799 W/m² -
1787771405 28.33° C 32% 1024.3 hPa 0 mm - 875 W/m² -
1787770805 27.22° C 35% 1024.3 hPa 0 mm - 920 W/m² -
1787770205 27.22° C 32% 1025.2 hPa 0 mm - 636 W/m² -
1787769605 27.22° C 36% 1025.2 hPa 0 mm - 396 W/m² -
1787769005 26.67° C 36% 1025.2 hPa 0 mm - 886 W/m² -
1787768405 26.11° C 38% 1025.2 hPa 0 mm - 854 W/m² -
1787767807 26.11° C 39% 1025.2 hPa 0 mm - 833 W/m² -
1787767205 25° C 41% 1025.2 hPa 0 mm - 904 W/m² -
1787766605 25° C 45% 1025.2 hPa 0 mm - 864 W/m² -
1787766004 23.89° C 45% 1025.2 hPa 0 mm - 827 W/m² -
1787765405 25° C 43% 1025.2 hPa 0 mm - 449 W/m² -
1787764805 23.89° C - - 0 mm - 101 W/m² -
1787764205 23.89° C 45% 1025.2 hPa 0 mm - 703 W/m² -
1787763605 22.22° C 53% 1025.2 hPa 0 mm - 814 W/m² -
1787763005 21.11° C 55% 1025 hPa 0 mm - 528 W/m² -
1787762405 21.11° C 53% 1025 hPa 0 mm - 386 W/m² -
1787761805 20.56° C 57% 1025 hPa 0 mm - 542 W/m² -

* Rain latest hour (hover to see other rain measurements)
** Current wind speed in m/s (hover to see current wind gust speed)